Regional Weather Roundup
Issued by NWS Sioux Falls, SD

Home | Current Version | Previous Version | Graphics & Text | Print | Product List | Glossary On
Versions: 1 2 3 4 5 6 7 8 9 10 11 12 13 14 15 16 17 18 19 20 21 22 23 24 25 26 27 28 29 30 31 32 33 34 35 36 37 38 39 40 41 42 43 44 45 46 47 48 49 50
000
ASUS43 KFSD 191810
RWRFSD

WEATHER ROUNDUP FOR SE SOUTH DAKOTA/SW MINNESOTA/NW IOWA
NATIONAL WEATHER SERVICE SIOUX FALLS SD
1200 PM CST SUN FEB 19 2017

NOTE: "FAIR" INDICATES FEW OR NO CLOUDS BELOW 12,000 FEET WITH NO
SIGNIFICANT WEATHER AND OR OBSTRUCTIONS TO VISIBILITY.


SDZ038>040-050-052>070-191900-
SOUTHEAST SOUTH DAKOTA

CITY           SKY/WX    TMP DP  RH WIND       PRES   REMARKS
BROOKINGS      SUNNY     53  43  68 S20G26    29.74F
CHAMBERLAIN    MOSUNNY   60  44  54 S10       29.62F
6HR MIN TEMP:  38; 6HR MAX TEMP:  60;

HURON          SUNNY     57  44  62 S16G24    29.64F
6HR MIN TEMP:  38; 6HR MAX TEMP:  57;

MADISON        FAIR      54  54 100 S16G23    29.75F
MITCHELL       SUNNY     57  46  66 S22G30    29.68F
6HR MIN TEMP:  37; 6HR MAX TEMP:  57;

SIOUX FALLS    PTSUNNY   57  49  74 S18G24    29.78F
6HR MIN TEMP:  40; 6HR MAX TEMP:  57;

WINNER         FAIR      62  40  44 SW17G26   29.60F
YANKTON        PTSUNNY   57  48  72 SE9G22    29.74F
$$

MNZ071-072-080-081-089-090-097-098-191900-
SOUTHWEST MINNESOTA

CITY           SKY/WX    TMP DP  RH WIND       PRES   REMARKS
FAIRMONT       MOSUNNY   54  45  71 S16       29.87F
JACKSON        SUNNY     54  43  66 S13       29.85F
LUVERNE        MOSUNNY   54  45  71 S14       29.81S
MARSHALL       CLOUDY    58  46  64 S18       29.79S
6HR MIN TEMP:  41; 6HR MAX TEMP:  58;

MONTEVIDEO     CLOUDY    54  45  71 S15       29.81S
PIPESTONE      MOSUNNY   54  43  66 S10       29.79S
REDWOOD FALLS  MOSUNNY   55  43  63 SE15      29.83R
TRACY          MOSUNNY   58  47  67 S14G20    29.81S
WINDOM         MOSUNNY   57  45  62 S10G17    29.83F
WORTHINGTON    MOSUNNY   54  48  80 S14       29.82S
$$

IAZ001>003-012>014-020>022-031-032-NEZ013-014-SDZ071-191900-
NORTHWEST IOWA

CITY           SKY/WX    TMP DP  RH WIND       PRES   REMARKS
CHEROKEE       MOSUNNY   62  52  69 S14       29.84S
DENISON        MOSUNNY   61  50  67 S15G24    29.85F
ESTHERVILLE    SUNNY     52  46  80 SE14      29.85F
LE MARS        MOSUNNY   59  52  77 S15G21    29.82S
SHELDON        MOSUNNY   57  55  94 S17       29.80F
SIOUX CITY     CLOUDY    60  50  69 S17       29.83R
6HR MIN TEMP:  36; 6HR MAX TEMP:  60;

SPENCER        SUNNY     59  50  72 S15       29.84F
6HR MIN TEMP:  34; 6HR MAX TEMP:  59;

STORM LAKE     SUNNY     57  50  77 S20       29.85F
$$

ABBREVIATIONS USED IN REMARKS
   TC - TEMPERATURE IN CELSIUS
  WCI - WIND CHILL INDEX
   HX - HEAT INDEX
  VSB - VISIBILITY





USA.gov is the U.S. government's official web portal to all federal, state and local government web resources and services.